Location: Unspecified
(0.0000°N, 0.0000°E)
Time: 20:53:56
(UTC+01:00)

SeaSat 1 - Visible Passes

Search period start: 17 December 2014 00:00
Search period end: 27 December 2014 00:00
Orbit: 746 x 749 km, 108.0° (Epoch: 17 December)

Date Brightness Start Highest point End Pass type
(mag) Time Alt. Az. Time Alt. Az. Time Alt. Az.
17 Dec 4.0 20:46:31 17° NNW 20:49:30 31° WNW 20:53:48 10° SW visible
18 Dec 2.4 20:04:16 17° NNE 20:08:02 73° ESE 20:12:57 10° SSW visible
19 Dec 3.9 19:23:03 10° ENE 19:26:36 20° ESE 19:30:09 10° SSE visible
19 Dec 4.2 21:01:51 20° NNW 21:03:53 26° WNW 21:07:58 10° SW visible
20 Dec 2.3 20:19:35 26° NNE 20:22:26 85° ESE 20:27:22 10° SSW visible
21 Dec 3.7 19:37:19 11° ENE 19:40:59 23° ESE 19:44:51 10° SSE visible
21 Dec 4.3 21:17:10 21° NW 21:18:17 23° WNW 21:22:05 10° WSW visible
22 Dec 2.4 20:34:53 38° NNE 20:36:50 82° WNW 20:41:45 10° SSW visible
23 Dec 3.5 19:52:37 17° ENE 19:55:22 27° ESE 19:59:30 10° S visible
23 Dec 4.6 21:32:27 19° WNW 21:32:40 19° WNW 21:36:08 10° WSW visible
24 Dec 2.6 20:50:10 53° N 20:51:13 70° WNW 20:56:07 10° SSW visible
25 Dec 3.3 20:07:53 24° ENE 20:09:45 32° ESE 20:14:05 10° S visible
25 Dec 4.9 21:47:43 16° WNW 21:47:43 16° WNW 21:50:07 10° WSW visible
26 Dec 2.7 21:05:26 59° WNW 21:05:36 60° WNW 21:10:27 10° SSW visible
